FW3268 Weather Reports


time (UTC)temp
C
wind
direction
speed
KPH
gust
KPH
rain 1hr
cm
rain 24hr
cm
rain mn
cm
humidity
%
barometer
mb
20260509063000 11 251 6.4 9.7 0.00 0.53 0.00 91 1007.6
20260509061501 11 231 8.0 11.3 0.00 0.53 0.00 91 1007.7
20260509060005 11 241 8.0 11.3 0.00 0.53 0.00 91 1007.9
20260509053000 11 223 9.7 16.1 0.00 0.53 0.00 91 1008.0
20260509051501 11 229 8.0 12.9 0.00 0.53 0.00 92 1007.8
20260509050005 11 223 4.8 6.4 0.00 0.53 0.00 92 1007.9
20260509044502 11 242 4.8 8.0 0.00 0.53 0.00 92 1007.8
20260509043002 11 248 4.8 6.4 0.00 0.53 0.00 92 1008.0
20260509041502 11 234 3.2 6.4 0.00 0.53 0.00 92 1008.0
20260509033002 12 217 4.8 8.0 0.00 0.53 0.53 92 1007.9
20260509031502 12 178 3.2 6.4 0.00 0.53 0.53 92 1007.9
20260509030005 12 243 4.8 8.0 0.00 0.53 0.53 91 1008.1
20260509021502 12 243 8.0 12.9 0.00 0.53 0.53 90 1008.2
20260509020003 12 236 6.4 9.7 0.00 0.53 0.53 90 1008.0
20260509013003 12 238 1.6 4.8 0.00 0.53 0.53 91 1008.1
20260509011501 12 226 4.8 8.0 0.00 0.53 0.53 91 1008.2
20260509004502 12 200 6.4 9.7 0.00 0.53 0.53 91 1008.2
20260509001502 12 198 8.0 11.3 0.00 0.53 0.53 90 1008.2
20260509000005 12 208 8.0 12.9 0.00 0.53 0.53 89 1008.3
20260508233001 12 219 9.7 12.9 0.00 0.53 0.53 89 1008.4
20260508231501 12 233 9.7 14.5 0.00 0.53 0.53 89 1008.5
20260508230007 12 237 12.9 16.1 0.00 0.53 0.53 87 1008.8
20260508224503 12 214 9.7 16.1 0.00 0.53 0.53 89 1008.4
20260508223002 12 216 12.9 17.7 0.03 0.53 0.53 89 1008.4
20260508221501 12 212 11.3 17.7 0.05 0.53 0.53 89 1008.5
20260508220005 12 212 11.3 17.7 0.08 0.53 0.53 89 1008.4
20260508214502 12 199 11.3 16.1 0.13 0.53 0.53 89 1008.2
20260508211501 12 260 11.3 20.9 0.18 0.48 0.48 89 1008.9
20260508210006 13 255 9.7 16.1 0.20 0.46 0.46 88 1009.1
20260508204501 13 274 6.4 11.3 0.18 0.41 0.41 88 1009.3
20260508203002 13 299 8.0 11.3 0.15 0.36 0.36 88 1009.4
20260508201503 13 296 6.4 12.9 0.15 0.30 0.30 86 1009.5
20260508200006 13 254 11.3 19.3 0.13 0.25 0.25 84 1009.6
20260508194502 13 262 16.1 24.1 0.10 0.23 0.23 82 1009.9
20260508193002 14 271 12.9 19.3 0.08 0.20 0.20 80 1009.9
20260508191501 15 245 11.3 16.1 0.03 0.15 0.15 77 1009.7
20260508184502 15 266 14.5 25.7 0.00 0.13 0.13 76 1009.9
20260508181501 17 283 20.9 33.8 0.00 0.13 0.13 64 1009.9
20260508180004 17 255 20.9 29.0 0.00 0.13 0.13 64 1009.9
20260508174501 17 242 19.3 29.0 0.00 0.13 0.13 66 1010.1
20260508173002 17 276 20.9 29.0 0.00 0.13 0.13 67 1010.2
20260508171501 17 265 17.7 25.7 0.00 0.13 0.13 67 1010.3
20260508170004 16 259 17.7 25.7 0.00 0.13 0.13 68 1010.5
20260508164501 16 230 19.3 29.0 0.00 0.13 0.13 68 1011.2
20260508163001 16 264 14.5 22.5 0.00 0.13 0.13 69 1011.3
20260508161501 16 283 14.5 22.5 0.00 0.13 0.13 69 1011.5
20260508160004 15 260 12.9 20.9 0.00 0.13 0.13 69 1011.7
20260508153002 15 260 11.3 19.3 0.00 0.13 0.13 73 1011.8
20260508151500 13 226 11.3 17.7 0.00 0.13 0.13 71 1011.7
20260508150005 13 251 11.3 19.3 0.00 0.13 0.13 74 1012.0
20260508144501 13 243 12.9 19.3 0.00 0.13 0.13 72 1012.2
20260508141502 12 262 12.9 19.3 0.00 0.13 0.13 74 1012.4
20260508140004 11 236 11.3 16.1 0.00 0.13 0.13 75 1012.6
20260508134501 11 246 11.3 16.1 0.00 0.13 0.13 74 1012.5
20260508133001 11 270 11.3 16.1 0.00 0.13 0.13 77 1012.7
20260508131500 11 229 6.4 11.3 0.00 0.13 0.13 79 1012.6
20260508130003 10 232 4.8 8.0 0.00 0.13 0.13 80 1012.6
20260508124500 10 226 4.8 6.4 0.00 0.13 0.13 78 1012.7
20260508123001 10 238 3.2 6.4 0.00 0.13 0.13 79 1012.7
20260508121501 10 221 3.2 4.8 0.00 0.13 0.13 79 1012.5
20260508120003 9 226 1.6 3.2 0.00 0.13 0.13 82 1012.6
20260508114500 9 245 1.6 1.6 0.00 0.13 0.13 84 1012.6
20260508113002 9 252 3.2 4.8 0.00 0.13 0.13 83 1012.6
20260508111500 9 265 3.2 4.8 0.00 0.13 0.13 83 1012.5
20260508110004 9 240 4.8 6.4 0.05 0.13 0.13 80 1012.5
20260508103000 9 269 4.8 8.0 0.08 0.13 0.13 81 1012.4
20260508101500 10 267 8.0 12.9 0.10 0.13 0.13 79 1012.3
20260508100004 9 250 4.8 8.0 0.08 0.08 0.08 79 1012.3
20260508094500 9 263 3.2 6.4 0.08 0.08 0.08 82 1012.4
20260508093001 9 303 4.8 8.0 0.05 0.05 0.05 82 1012.9
20260508091501 9 300 4.8 9.7 0.03 0.03 0.03 81 1013.1
20260508090002 10 285 8.0 12.9 0.00 0.00 0.00 76 1012.9
20260508084459 10 238 8.0 11.3 0.00 0.00 0.00 81 1012.0
20260508083001 10 250 12.9 20.9 0.00 0.00 0.00 80 1012.1
20260508081501 10 246 16.1 22.5 0.00 0.00 0.00 80 1012.1
20260508080002 11 262 19.3 32.2 0.00 0.00 0.00 74 1012.0
20260508074500 10 269 17.7 27.4 0.00 0.00 0.00 77 1012.1
20260508073000 10 264 16.1 22.5 0.00 0.00 0.00 74 1012.5
20260508071501 10 237 11.3 20.9 0.00 0.00 0.00 74 1012.6
20260508070004 10 245 11.3 14.5 0.00 0.00 0.00 76 1012.5